User: anonymous   Login
Location: Unspecified
(0.0000°N, 0.0000°E)
Time: 09:25:02
(UTC+00:00)
Language:

DNEPR OBJECT U - Orbit

View from above orbital plane
View from above orbital plane
View from above satellite
View from above satellite

Ground track
Ground track

The orbit data is extracted from the following two-line orbital elements,

1 39434U 13066U   17327.77523524  .00001748  00000-0  13279-3 0  9999
2 39434  97.6361  41.4950 0033691 344.0485  15.9671 15.03064307218795
Epoch (UTC): 23 November 2017 18:36:20
Eccentricity: 0.0033691
inclination: 97.6361°
perigee height: 534 km
apogee height: 581 km
right ascension of ascending node: 41.4950°
argument of perigee: 344.0485°
revolutions per day: 15.03064307
mean anomaly at epoch: 15.9671°
orbit number at epoch: 21879

The dashed part of the orbit path shows where the satellite is in the earth's shadow,  

DLR